Location: Burzi?i
(45.0869°N, 16.0577°E)
Time: 08:29:37
(UTC+00:00)

Cosmos 1503 Rocket - Pass Details

Date: 29 October 2020
Orbit: 752 x 791 km, 74.0° (Epoch: 28 November)

Event Time Altitude Azimuth Distance (km) Brightness Sun altitude
Rises 17:16:18 0° 340° (NNW) 3,230 7.5 -16.2°
Reaches altitude 10° 17:18:41 10° 343° (NNW) 2,306 6.6 -16.6°
Maximum altitude 17:23:54 68° 67° (ENE) 829 3.9 -17.5°
Drops below altitude 10° 17:29:08 10° 150° (SSE) 2,316 6.2 -18.4°
Enters shadow 17:29:46 - 151° (SSE) 2,556 6.4 -18.5°
